This is the latest recevied weather packets stored in our database for station/object W4TJP. If no packets are shown the sender has not sent any weather packets the latest 10 day(s).
| Time | Temp. | Humidity | Pressure | Rain* | Wind** | Luminosity | Snow |
|---|---|---|---|---|---|---|---|
| 1777851006 | 13.89° C | 61% | 1016.1 hPa | 0 mm | - | 18 W/m² | - |
| 1777850703 | 13.89° C | 51% | 1016.1 hPa | 0 mm | - | 19 W/m² | - |
| 1777850400 | 14.44° C | 53% | 1016.1 hPa | 0 mm | - | 21 W/m² | - |
| 1777850098 | 14.44° C | 50% | 1016.1 hPa | 0 mm | - | 22 W/m² | - |
| 1777849794 | 14.44° C | 52% | 1016.2 hPa | 0 mm | - | 23 W/m² | - |
| 1777849491 | 14.44° C | 51% | 1016.2 hPa | 0 mm | - | 24 W/m² | - |
| 1777849188 | 14.44° C | 50% | 1016.4 hPa | 0 mm | - | 24 W/m² | - |
| 1777848885 | 15° C | 52% | 1016.5 hPa | 0 mm | - | 25 W/m² | - |
| 1777848581 | 15° C | 53% | 1016.4 hPa | 0 mm | - | 28 W/m² | - |
| 1777848278 | 15° C | 49% | 1016.8 hPa | 0 mm | - | 28 W/m² | - |
| 1777847975 | 15.56° C | 50% | 1016.6 hPa | 0 mm | - | 37 W/m² | - |
| 1777847673 | 15.56° C | 47% | 1016.6 hPa | 0 mm | - | 112 W/m² | - |
| 1777847368 | 15° C | 52% | 1016.9 hPa | 0 mm | - | 103 W/m² | - |
| 1777847067 | 15.56° C | 54% | 1016.8 hPa | 0 mm | - | 42 W/m² | - |
| 1777846765 | 15.56° C | 50% | 1017 hPa | 0 mm | - | 72 W/m² | - |
| 1777846463 | 15.56° C | 47% | 1016.9 hPa | 0 mm | - | 142 W/m² | - |
| 1777846160 | 15.56° C | 46% | 1017.4 hPa | 0 mm | - | 59 W/m² | - |
| 1777845856 | 15.56° C | 46% | 1017.2 hPa | 0 mm | - | 85 W/m² | - |
| 1777845553 | 16.11° C | 44% | 1017.3 hPa | 0 mm | - | 44 W/m² | - |
| 1777845250 | 16.11° C | 43% | 1017.3 hPa | 0 mm | - | 75 W/m² | - |
| 1777844948 | 16.67° C | 43% | 1017.3 hPa | 0 mm | - | 41 W/m² | - |
| 1777844645 | 16.67° C | 43% | 1017.5 hPa | 0 mm | - | 110 W/m² | - |
| 1777844342 | 17.78° C | 40% | 1017.4 hPa | 0 mm | - | 58 W/m² | - |
| 1777844040 | 17.78° C | 40% | 1017.4 hPa | 0 mm | - | 401 W/m² | - |
| 1777843736 | 18.33° C | 41% | 1017.4 hPa | 0 mm | - | 405 W/m² | - |
* Rain latest hour (hover to see other rain measurements)
** Current wind speed in m/s (hover to see current wind gust speed)